Year,Month,Day,Hour,Minute,Value (Times are PST for temperature in C)
2012,04,20,00,00,8.70
2012,04,20,00,01,8.60
2012,04,20,00,02,8.60
2012,04,20,00,03,8.60
2012,04,20,00,04,8.60
2012,04,20,00,05,8.70
2012,04,20,00,06,8.70
2012,04,20,00,07,8.70
2012,04,20,00,08,8.80
2012,04,20,00,09,8.80
2012,04,20,00,10,8.90
2012,04,20,00,11,8.90
2012,04,20,00,12,8.90
2012,04,20,00,13,9.00
2012,04,20,00,14,9.00
2012,04,20,00,15,9.00
2012,04,20,00,16,9.10
2012,04,20,00,17,9.10
2012,04,20,00,18,9.10
2012,04,20,00,19,9.10
2012,04,20,00,20,9.20
2012,04,20,00,21,9.20
2012,04,20,00,22,9.20
2012,04,20,00,23,9.20
2012,04,20,00,24,9.20
2012,04,20,00,25,9.10
2012,04,20,00,26,9.10
2012,04,20,00,27,9.10
2012,04,20,00,28,9.10
2012,04,20,00,29,9.10
2012,04,20,00,30,9.10
2012,04,20,00,31,9.10
2012,04,20,00,32,9.10
2012,04,20,00,33,9.10
2012,04,20,00,34,9.10
2012,04,20,00,35,9.00
2012,04,20,00,36,9.00
2012,04,20,00,37,8.90
2012,04,20,00,38,8.90
2012,04,20,00,39,8.90
2012,04,20,00,40,8.80
2012,04,20,00,41,8.80
2012,04,20,00,42,8.80
2012,04,20,00,43,8.80
2012,04,20,00,44,8.70
2012,04,20,00,45,8.60
2012,04,20,00,46,8.60
2012,04,20,00,47,8.60
2012,04,20,00,48,8.60
2012,04,20,00,49,8.60
2012,04,20,00,50,8.60
2012,04,20,00,51,8.50
2012,04,20,00,52,8.50
2012,04,20,00,53,8.40
2012,04,20,00,54,8.40
2012,04,20,00,55,8.40
2012,04,20,00,56,8.30
2012,04,20,00,57,8.30
2012,04,20,00,58,8.30
2012,04,20,00,59,8.30
2012,04,20,01,00,8.30
2012,04,20,01,01,8.30
2012,04,20,01,02,8.20
2012,04,20,01,03,8.20
2012,04,20,01,04,8.30
2012,04,20,01,05,8.30
2012,04,20,01,06,8.30
2012,04,20,01,07,8.30
2012,04,20,01,08,8.30
2012,04,20,01,09,8.30
2012,04,20,01,10,8.30
2012,04,20,01,11,8.40
2012,04,20,01,12,8.40
2012,04,20,01,13,8.40
2012,04,20,01,14,8.40
2012,04,20,01,15,8.40
2012,04,20,01,16,8.40
2012,04,20,01,17,8.40
2012,04,20,01,18,8.40
2012,04,20,01,19,8.40
2012,04,20,01,20,8.40
2012,04,20,01,21,8.30
2012,04,20,01,22,8.30
2012,04,20,01,23,8.30
2012,04,20,01,24,8.30
2012,04,20,01,25,8.30
2012,04,20,01,26,8.30
2012,04,20,01,27,8.30
2012,04,20,01,28,8.30
2012,04,20,01,29,8.30
2012,04,20,01,30,8.30
2012,04,20,01,31,8.30
2012,04,20,01,32,8.30
2012,04,20,01,33,8.30
2012,04,20,01,34,8.20
2012,04,20,01,35,8.20
2012,04,20,01,36,8.10
2012,04,20,01,37,8.10
2012,04,20,01,38,8.00
2012,04,20,01,39,7.90
2012,04,20,01,40,7.90
2012,04,20,01,41,7.80
2012,04,20,01,42,7.80
2012,04,20,01,43,7.80
2012,04,20,01,44,7.70
2012,04,20,01,45,7.70
2012,04,20,01,46,7.60
2012,04,20,01,47,7.60
2012,04,20,01,48,7.60
2012,04,20,01,49,7.60
2012,04,20,01,50,7.60
2012,04,20,01,51,7.60
2012,04,20,01,52,7.60
2012,04,20,01,53,7.60
2012,04,20,01,54,7.60
2012,04,20,01,55,7.60
2012,04,20,01,56,7.60
2012,04,20,01,57,7.60
2012,04,20,01,58,7.60
2012,04,20,01,59,7.70
2012,04,20,02,00,7.70
2012,04,20,02,01,7.80
2012,04,20,02,02,7.80
2012,04,20,02,03,7.80
2012,04,20,02,04,7.80
2012,04,20,02,05,7.80
2012,04,20,02,06,7.80
2012,04,20,02,07,7.70
2012,04,20,02,08,7.70
2012,04,20,02,09,7.70
2012,04,20,02,10,7.70
2012,04,20,02,11,7.70
2012,04,20,02,12,7.70
2012,04,20,02,13,7.70
2012,04,20,02,14,7.60
2012,04,20,02,15,7.60
2012,04,20,02,16,7.60
2012,04,20,02,17,7.60
2012,04,20,02,18,7.60
2012,04,20,02,19,7.60
2012,04,20,02,20,7.50
2012,04,20,02,21,7.50
2012,04,20,02,22,7.50
2012,04,20,02,23,7.50
2012,04,20,02,24,7.50
2012,04,20,02,25,7.40
2012,04,20,02,26,7.40
2012,04,20,02,27,7.40
2012,04,20,02,28,7.40
2012,04,20,02,29,7.40
2012,04,20,02,30,7.50
2012,04,20,02,31,7.50
2012,04,20,02,32,7.40
2012,04,20,02,33,7.40
2012,04,20,02,34,7.40
2012,04,20,02,35,7.40
2012,04,20,02,36,7.40
2012,04,20,02,37,7.40
2012,04,20,02,38,7.40
2012,04,20,02,39,7.40
2012,04,20,02,40,7.40
2012,04,20,02,41,7.40
2012,04,20,02,42,7.30
2012,04,20,02,43,7.30
2012,04,20,02,44,7.30
2012,04,20,02,45,7.30
2012,04,20,02,46,7.30
2012,04,20,02,47,7.30
2012,04,20,02,48,7.30
2012,04,20,02,49,7.30
2012,04,20,02,50,7.30
2012,04,20,02,51,7.30
2012,04,20,02,52,7.30
2012,04,20,02,53,7.30
2012,04,20,02,54,7.30
2012,04,20,02,55,7.30
2012,04,20,02,56,7.30
2012,04,20,02,57,7.30
2012,04,20,02,58,7.30
2012,04,20,02,59,7.30
2012,04,20,03,00,7.30
2012,04,20,03,01,7.30
2012,04,20,03,02,7.30
2012,04,20,03,03,7.30
2012,04,20,03,04,7.30
2012,04,20,03,05,7.30
2012,04,20,03,06,7.30
2012,04,20,03,07,7.30
2012,04,20,03,08,7.30
2012,04,20,03,09,7.30
2012,04,20,03,10,7.30
2012,04,20,03,11,7.30
2012,04,20,03,12,7.20
2012,04,20,03,13,7.20
2012,04,20,03,14,7.20
2012,04,20,03,15,7.20
2012,04,20,03,16,7.20
2012,04,20,03,17,7.20
2012,04,20,03,18,7.20
2012,04,20,03,19,7.20
2012,04,20,03,20,7.20
2012,04,20,03,21,7.20
2012,04,20,03,22,7.20
2012,04,20,03,23,7.20
2012,04,20,03,24,7.20
2012,04,20,03,25,7.20
2012,04,20,03,26,7.20
2012,04,20,03,27,7.20
2012,04,20,03,28,7.20
2012,04,20,03,29,7.20
2012,04,20,03,30,7.20
2012,04,20,03,31,7.20
2012,04,20,03,32,7.20
2012,04,20,03,33,7.20
2012,04,20,03,34,7.20
2012,04,20,03,35,7.20
2012,04,20,03,36,7.20
2012,04,20,03,37,7.20
2012,04,20,03,38,7.20
2012,04,20,03,39,7.10
2012,04,20,03,40,7.10
2012,04,20,03,41,7.10
2012,04,20,03,42,7.10
2012,04,20,03,43,7.10
2012,04,20,03,44,7.10
2012,04,20,03,45,7.10
2012,04,20,03,46,7.10
2012,04,20,03,47,7.10
2012,04,20,03,48,7.10
2012,04,20,03,49,7.10
2012,04,20,03,50,7.10
2012,04,20,03,51,7.10
2012,04,20,03,52,7.10
2012,04,20,03,53,7.10
2012,04,20,03,54,7.10
2012,04,20,03,55,7.10
2012,04,20,03,56,7.10
2012,04,20,03,57,7.10
2012,04,20,03,58,7.10
2012,04,20,03,59,7.10
2012,04,20,04,00,7.10
2012,04,20,04,01,7.00
2012,04,20,04,02,7.00
2012,04,20,04,03,7.00
2012,04,20,04,04,7.10
2012,04,20,04,05,7.00
2012,04,20,04,06,7.00
2012,04,20,04,07,7.00
2012,04,20,04,08,7.00
2012,04,20,04,09,7.10
2012,04,20,04,10,7.10
2012,04,20,04,11,7.10
2012,04,20,04,12,7.10
2012,04,20,04,13,7.10
2012,04,20,04,14,7.10
2012,04,20,04,15,7.10
2012,04,20,04,16,7.10
2012,04,20,04,17,7.10
2012,04,20,04,18,7.10
2012,04,20,04,19,7.10
2012,04,20,04,20,7.10
2012,04,20,04,21,7.10
2012,04,20,04,22,7.10
2012,04,20,04,23,7.10
2012,04,20,04,24,7.10
2012,04,20,04,25,7.10
2012,04,20,04,26,7.00
2012,04,20,04,27,7.00
2012,04,20,04,28,7.00
2012,04,20,04,29,7.00
2012,04,20,04,30,7.00
2012,04,20,04,31,6.90
2012,04,20,04,32,6.90
2012,04,20,04,33,6.90
2012,04,20,04,34,6.90
2012,04,20,04,35,6.90
2012,04,20,04,36,6.90
2012,04,20,04,37,6.90
2012,04,20,04,38,6.80
2012,04,20,04,39,6.80
2012,04,20,04,40,6.80
2012,04,20,04,41,6.80
2012,04,20,04,42,6.80
2012,04,20,04,43,6.80
2012,04,20,04,44,6.80
2012,04,20,04,45,6.80
2012,04,20,04,46,6.80
2012,04,20,04,47,6.80
2012,04,20,04,48,6.80
2012,04,20,04,49,6.80
2012,04,20,04,50,6.80
2012,04,20,04,51,6.80
2012,04,20,04,52,6.80
2012,04,20,04,53,6.80
2012,04,20,04,54,6.80
2012,04,20,04,55,6.80
2012,04,20,04,56,6.80
2012,04,20,04,57,6.80
2012,04,20,04,58,6.90
2012,04,20,04,59,6.90
2012,04,20,05,00,7.00
2012,04,20,05,01,7.00
2012,04,20,05,02,7.00
2012,04,20,05,03,7.10
2012,04,20,05,04,7.10
2012,04,20,05,05,7.20
2012,04,20,05,06,7.20
2012,04,20,05,07,7.20
2012,04,20,05,08,7.20
2012,04,20,05,09,7.20
2012,04,20,05,10,7.30
2012,04,20,05,11,7.40
2012,04,20,05,12,7.40
2012,04,20,05,13,7.50
2012,04,20,05,14,7.50
2012,04,20,05,15,7.60
2012,04,20,05,16,7.70
2012,04,20,05,17,7.70
2012,04,20,05,18,7.70
2012,04,20,05,19,7.70
2012,04,20,05,20,7.70
2012,04,20,05,21,7.70
2012,04,20,05,22,7.70
2012,04,20,05,23,7.70
2012,04,20,05,24,7.70
2012,04,20,05,25,7.60
2012,04,20,05,26,7.50
2012,04,20,05,27,7.50
2012,04,20,05,28,7.40
2012,04,20,05,29,7.40
2012,04,20,05,30,7.30
2012,04,20,05,31,7.30
2012,04,20,05,32,7.30
2012,04,20,05,33,7.30
2012,04,20,05,34,7.20
2012,04,20,05,35,7.20
2012,04,20,05,36,7.20
2012,04,20,05,37,7.20
2012,04,20,05,38,7.20
2012,04,20,05,39,7.20
2012,04,20,05,40,7.10
2012,04,20,05,41,7.10
2012,04,20,05,42,7.00
2012,04,20,05,43,7.00
2012,04,20,05,44,7.00
2012,04,20,05,45,6.90
2012,04,20,05,46,6.90
2012,04,20,05,47,6.90
2012,04,20,05,48,6.80
2012,04,20,05,49,6.80
2012,04,20,05,50,6.80
2012,04,20,05,51,6.80
2012,04,20,05,52,6.80
2012,04,20,05,53,6.80
2012,04,20,05,54,6.70
2012,04,20,05,55,6.70
2012,04,20,05,56,6.70
2012,04,20,05,57,6.70
2012,04,20,05,58,6.60
2012,04,20,05,59,6.60
2012,04,20,06,00,6.60
2012,04,20,06,01,6.60
2012,04,20,06,02,6.50
2012,04,20,06,03,6.50
2012,04,20,06,04,6.50
2012,04,20,06,05,6.40
2012,04,20,06,06,6.40
2012,04,20,06,07,6.40
2012,04,20,06,08,6.40
2012,04,20,06,09,6.40
2012,04,20,06,10,6.30
2012,04,20,06,11,6.30
2012,04,20,06,12,6.30
2012,04,20,06,13,6.30
2012,04,20,06,14,6.30
2012,04,20,06,15,6.30
2012,04,20,06,16,6.30
2012,04,20,06,17,6.30
2012,04,20,06,18,6.30
2012,04,20,06,19,6.30
2012,04,20,06,20,6.30
2012,04,20,06,21,6.30
2012,04,20,06,22,6.30
2012,04,20,06,23,6.30
2012,04,20,06,24,6.30
2012,04,20,06,25,6.30
2012,04,20,06,26,6.30
2012,04,20,06,27,6.30
2012,04,20,06,28,6.30
2012,04,20,06,29,6.30
2012,04,20,06,30,6.30
2012,04,20,06,31,6.30
2012,04,20,06,32,6.30
2012,04,20,06,33,6.30
2012,04,20,06,34,6.30
2012,04,20,06,35,6.30
2012,04,20,06,36,6.30
2012,04,20,06,37,6.30
2012,04,20,06,38,6.30
2012,04,20,06,39,6.20
2012,04,20,06,40,6.20
2012,04,20,06,41,6.20
2012,04,20,06,42,6.20
2012,04,20,06,43,6.20
2012,04,20,06,44,6.20
2012,04,20,06,45,6.20
2012,04,20,06,46,6.20
2012,04,20,06,47,6.20
2012,04,20,06,48,6.20
2012,04,20,06,49,6.20
2012,04,20,06,50,6.20
2012,04,20,06,51,6.20
2012,04,20,06,52,6.20
2012,04,20,06,53,6.20
2012,04,20,06,54,6.10
2012,04,20,06,55,6.20
2012,04,20,06,56,6.10
2012,04,20,06,57,6.10
2012,04,20,06,58,6.10
2012,04,20,06,59,6.10
2012,04,20,07,00,6.10
2012,04,20,07,01,6.10
2012,04,20,07,02,6.10
2012,04,20,07,03,6.10
2012,04,20,07,04,6.10
2012,04,20,07,05,6.10
2012,04,20,07,06,6.10
2012,04,20,07,07,6.10
2012,04,20,07,08,6.10
2012,04,20,07,09,6.10
2012,04,20,07,10,6.10
2012,04,20,07,11,6.10
2012,04,20,07,12,6.10
2012,04,20,07,13,6.10
2012,04,20,07,14,6.10
2012,04,20,07,15,6.10
2012,04,20,07,16,6.10
2012,04,20,07,17,6.10
2012,04,20,07,18,6.10
2012,04,20,07,19,6.10
2012,04,20,07,20,6.10
2012,04,20,07,21,6.10
2012,04,20,07,22,6.10
2012,04,20,07,23,6.10
2012,04,20,07,24,6.10
2012,04,20,07,25,6.10
2012,04,20,07,26,6.10
2012,04,20,07,27,6.10
2012,04,20,07,28,6.10
2012,04,20,07,29,6.10
2012,04,20,07,30,6.10
2012,04,20,07,31,6.10
2012,04,20,07,32,6.10
2012,04,20,07,33,6.10
2012,04,20,07,34,6.20
2012,04,20,07,35,6.20
2012,04,20,07,36,6.20
2012,04,20,07,37,6.20
2012,04,20,07,38,6.20
2012,04,20,07,39,6.20
2012,04,20,07,40,6.20
2012,04,20,07,41,6.20
2012,04,20,07,42,6.30
2012,04,20,07,43,6.30
2012,04,20,07,44,6.30
2012,04,20,07,45,6.30
2012,04,20,07,46,6.30
2012,04,20,07,47,6.30
2012,04,20,07,48,6.30
2012,04,20,07,49,6.30
2012,04,20,07,50,6.30
2012,04,20,07,51,6.30
2012,04,20,07,52,6.30
2012,04,20,07,53,6.30
2012,04,20,07,54,6.30
2012,04,20,07,55,6.30
2012,04,20,07,56,6.30
2012,04,20,07,57,6.30
2012,04,20,07,58,6.30
2012,04,20,07,59,6.30
2012,04,20,08,00,6.30
2012,04,20,08,01,6.30
2012,04,20,08,02,6.30
2012,04,20,08,03,6.40
2012,04,20,08,04,6.40
2012,04,20,08,05,6.30
2012,04,20,08,06,6.30
2012,04,20,08,07,6.30
2012,04,20,08,08,6.30
2012,04,20,08,09,6.30
2012,04,20,08,10,6.30
2012,04,20,08,11,6.30
2012,04,20,08,12,6.40
2012,04,20,08,13,6.40
2012,04,20,08,14,6.40
2012,04,20,08,15,6.50
2012,04,20,08,16,6.60
2012,04,20,08,17,6.70
2012,04,20,08,18,6.70
2012,04,20,08,19,6.70
2012,04,20,08,20,6.70
2012,04,20,08,21,6.80
2012,04,20,08,22,6.80
2012,04,20,08,23,6.90
2012,04,20,08,24,7.00
2012,04,20,08,25,7.10
2012,04,20,08,26,7.20
2012,04,20,08,27,7.20
2012,04,20,08,28,7.40
2012,04,20,08,29,7.50
2012,04,20,08,30,7.60
2012,04,20,08,31,7.80
2012,04,20,08,32,7.90
2012,04,20,08,33,7.90
2012,04,20,08,34,8.00
2012,04,20,08,35,8.10
2012,04,20,08,36,8.20
2012,04,20,08,37,8.30
2012,04,20,08,38,8.40
2012,04,20,08,39,8.40
2012,04,20,08,40,8.40
2012,04,20,08,41,8.40
2012,04,20,08,42,8.40
2012,04,20,08,43,8.40
2012,04,20,08,44,8.50
2012,04,20,08,45,8.60
2012,04,20,08,46,8.60
2012,04,20,08,47,8.70
2012,04,20,08,48,8.70
2012,04,20,08,49,8.70
2012,04,20,08,50,8.70
2012,04,20,08,51,8.80
2012,04,20,08,52,8.80
2012,04,20,08,53,8.80
2012,04,20,08,54,8.90
2012,04,20,08,55,9.00
2012,04,20,08,56,9.10
2012,04,20,08,57,9.10
2012,04,20,08,58,9.20
2012,04,20,08,59,9.20
2012,04,20,09,00,9.30
2012,04,20,09,01,9.30
2012,04,20,09,02,9.30
2012,04,20,09,03,9.30
2012,04,20,09,04,9.30
2012,04,20,09,05,9.40
2012,04,20,09,06,9.30
2012,04,20,09,07,9.30
2012,04,20,09,08,9.30
2012,04,20,09,09,9.30
2012,04,20,09,10,9.40
2012,04,20,09,11,9.40
2012,04,20,09,12,9.40
2012,04,20,09,13,9.50
2012,04,20,09,14,9.60
2012,04,20,09,15,9.70
2012,04,20,09,16,9.70
2012,04,20,09,17,9.80
2012,04,20,09,18,9.80
2012,04,20,09,19,9.90
2012,04,20,09,20,9.90
2012,04,20,09,21,9.90
2012,04,20,09,22,9.90
2012,04,20,09,23,9.90
2012,04,20,09,24,9.90
2012,04,20,09,25,9.90
2012,04,20,09,26,9.90
2012,04,20,09,27,10.00
2012,04,20,09,28,10.00
2012,04,20,09,29,10.00
2012,04,20,09,30,10.10
2012,04,20,09,31,10.10
2012,04,20,09,32,10.10
2012,04,20,09,33,10.10
2012,04,20,09,34,10.20
2012,04,20,09,35,10.20
2012,04,20,09,36,10.20
2012,04,20,09,37,10.30
2012,04,20,09,38,10.30
2012,04,20,09,39,10.30
2012,04,20,09,40,10.40
2012,04,20,09,41,10.40
2012,04,20,09,42,10.40
2012,04,20,09,43,10.40
2012,04,20,09,44,10.40
2012,04,20,09,45,10.40
2012,04,20,09,46,10.40
2012,04,20,09,47,10.40
2012,04,20,09,48,10.40
2012,04,20,09,49,10.40
2012,04,20,09,50,10.40
2012,04,20,09,51,10.40
2012,04,20,09,52,10.30
2012,04,20,09,53,10.30
2012,04,20,09,54,10.30
2012,04,20,09,55,10.40
2012,04,20,09,56,10.40
2012,04,20,09,57,10.40
2012,04,20,09,58,10.50
2012,04,20,09,59,10.50
2012,04,20,10,00,10.60
2012,04,20,10,01,10.60
2012,04,20,10,02,10.70
2012,04,20,10,03,10.70
2012,04,20,10,04,10.70
2012,04,20,10,05,10.70
2012,04,20,10,06,10.70
2012,04,20,10,07,10.70
2012,04,20,10,08,10.80
2012,04,20,10,09,10.80
2012,04,20,10,10,10.80
2012,04,20,10,11,10.90
2012,04,20,10,12,10.90
2012,04,20,10,13,11.00
2012,04,20,10,14,11.00
2012,04,20,10,15,11.10
2012,04,20,10,16,11.10
2012,04,20,10,17,11.20
2012,04,20,10,18,11.20
2012,04,20,10,19,11.30
2012,04,20,10,20,11.30
2012,04,20,10,21,11.30
2012,04,20,10,22,11.30
2012,04,20,10,23,11.30
2012,04,20,10,24,11.30
2012,04,20,10,25,11.30
2012,04,20,10,26,11.40
2012,04,20,10,27,11.40
2012,04,20,10,28,11.50
2012,04,20,10,29,11.60
2012,04,20,10,30,11.60
2012,04,20,10,31,11.60
2012,04,20,10,32,11.60
2012,04,20,10,33,11.60
2012,04,20,10,34,11.60
2012,04,20,10,35,11.60
2012,04,20,10,36,11.70
2012,04,20,10,37,11.70
2012,04,20,10,38,11.70
2012,04,20,10,39,11.70
2012,04,20,10,40,11.70
2012,04,20,10,41,11.70
2012,04,20,10,42,11.70
2012,04,20,10,43,11.70
2012,04,20,10,44,11.80
2012,04,20,10,45,11.70
2012,04,20,10,46,11.70
2012,04,20,10,47,11.70
2012,04,20,10,48,11.70
2012,04,20,10,49,11.70
2012,04,20,10,50,11.80
2012,04,20,10,51,11.70
2012,04,20,10,52,11.70
2012,04,20,10,53,11.70
2012,04,20,10,54,11.70
2012,04,20,10,55,11.70
2012,04,20,10,56,11.70
2012,04,20,10,57,11.70
2012,04,20,10,58,11.70
2012,04,20,10,59,11.70
2012,04,20,11,00,11.70
2012,04,20,11,01,11.70
2012,04,20,11,02,11.70
2012,04,20,11,03,11.70
2012,04,20,11,04,11.80
2012,04,20,11,05,11.80
2012,04,20,11,06,11.80
2012,04,20,11,07,11.80
2012,04,20,11,08,11.80
2012,04,20,11,09,11.80
2012,04,20,11,10,11.80
2012,04,20,11,11,11.90
2012,04,20,11,12,11.90
2012,04,20,11,13,11.90
2012,04,20,11,14,11.90
2012,04,20,11,15,12.00
2012,04,20,11,16,12.00
2012,04,20,11,17,12.00
2012,04,20,11,18,12.10
2012,04,20,11,19,12.10
2012,04,20,11,20,12.10
2012,04,20,11,21,12.10
2012,04,20,11,22,12.10
2012,04,20,11,23,12.10
2012,04,20,11,24,12.00
2012,04,20,11,25,12.10
2012,04,20,11,26,12.10
2012,04,20,11,27,12.10
2012,04,20,11,28,12.00
2012,04,20,11,29,12.00
2012,04,20,11,30,11.90
2012,04,20,11,31,11.90
2012,04,20,11,32,11.90
2012,04,20,11,33,12.00
2012,04,20,11,34,12.00
2012,04,20,11,35,12.10
2012,04,20,11,36,12.10
2012,04,20,11,37,12.10
2012,04,20,11,38,12.10
2012,04,20,11,39,12.10
2012,04,20,11,40,12.10
2012,04,20,11,41,12.20
2012,04,20,11,42,12.20
2012,04,20,11,43,12.20
2012,04,20,11,44,12.30
2012,04,20,11,45,12.30
2012,04,20,11,46,12.40
2012,04,20,11,47,12.40
2012,04,20,11,48,12.40
2012,04,20,11,49,12.40
2012,04,20,11,50,12.30
2012,04,20,11,51,12.30
2012,04,20,11,52,12.30
2012,04,20,11,53,12.30
2012,04,20,11,54,12.30
2012,04,20,11,55,12.30
2012,04,20,11,56,12.30
2012,04,20,11,57,12.40
2012,04,20,11,58,12.40
2012,04,20,11,59,12.40
2012,04,20,12,00,12.40
2012,04,20,12,01,12.50
2012,04,20,12,02,12.50
2012,04,20,12,03,12.60
2012,04,20,12,04,12.60
2012,04,20,12,05,12.70
2012,04,20,12,06,12.70
2012,04,20,12,07,12.70
2012,04,20,12,08,12.80
2012,04,20,12,09,12.90
2012,04,20,12,10,12.90
2012,04,20,12,11,12.90
2012,04,20,12,12,12.90
2012,04,20,12,13,12.90
2012,04,20,12,14,12.90
2012,04,20,12,15,13.00
2012,04,20,12,16,13.00
2012,04,20,12,17,13.00
2012,04,20,12,18,13.10
2012,04,20,12,19,13.00
2012,04,20,12,20,13.00
2012,04,20,12,21,12.90
2012,04,20,12,22,12.90
2012,04,20,12,23,12.80
2012,04,20,12,24,12.80
2012,04,20,12,25,12.70
2012,04,20,12,26,12.70
2012,04,20,12,27,12.60
2012,04,20,12,28,12.60
2012,04,20,12,29,12.60
2012,04,20,12,30,12.60
2012,04,20,12,31,12.50
2012,04,20,12,32,12.50
2012,04,20,12,33,12.50
2012,04,20,12,34,12.50
2012,04,20,12,35,12.40
2012,04,20,12,36,12.40
2012,04,20,12,37,12.40
2012,04,20,12,38,12.50
2012,04,20,12,39,12.50
2012,04,20,12,40,12.50
2012,04,20,12,41,12.50
2012,04,20,12,42,12.40
2012,04,20,12,43,12.40
2012,04,20,12,44,12.40
2012,04,20,12,45,12.30
2012,04,20,12,46,12.30
2012,04,20,12,47,12.30
2012,04,20,12,48,12.30
2012,04,20,12,49,12.30
2012,04,20,12,50,12.40
2012,04,20,12,51,12.40
2012,04,20,12,52,12.50
2012,04,20,12,53,12.60
2012,04,20,12,54,12.70
2012,04,20,12,55,12.70
2012,04,20,12,56,12.70
2012,04,20,12,57,12.70
2012,04,20,12,58,12.70
2012,04,20,12,59,12.60
2012,04,20,13,00,12.60
2012,04,20,13,01,12.60
2012,04,20,13,02,12.50
2012,04,20,13,03,12.50
2012,04,20,13,04,12.40
2012,04,20,13,05,12.40
2012,04,20,13,06,12.40
2012,04,20,13,07,12.40
2012,04,20,13,08,12.40
2012,04,20,13,09,12.40
2012,04,20,13,10,12.40
2012,04,20,13,11,12.40
2012,04,20,13,12,12.30
2012,04,20,13,13,12.30
2012,04,20,13,14,12.30
2012,04,20,13,15,12.30
2012,04,20,13,16,12.30
2012,04,20,13,17,12.40
2012,04,20,13,18,12.40
2012,04,20,13,19,12.50
2012,04,20,13,20,12.50
2012,04,20,13,21,12.50
2012,04,20,13,22,12.60
2012,04,20,13,23,12.70
2012,04,20,13,24,12.70
2012,04,20,13,25,12.70
2012,04,20,13,26,12.70
2012,04,20,13,27,12.80
2012,04,20,13,28,12.80
2012,04,20,13,29,12.90
2012,04,20,13,30,12.90
2012,04,20,13,31,13.00
2012,04,20,13,32,13.00
2012,04,20,13,33,13.00
2012,04,20,13,34,13.00
2012,04,20,13,35,13.00
2012,04,20,13,36,12.90
2012,04,20,13,37,12.90
2012,04,20,13,38,12.90
2012,04,20,13,39,13.00
2012,04,20,13,40,13.00
2012,04,20,13,41,13.00
2012,04,20,13,42,13.00
2012,04,20,13,43,12.90
2012,04,20,13,44,12.90
2012,04,20,13,45,12.90
2012,04,20,13,46,12.90
2012,04,20,13,47,13.00
2012,04,20,13,48,13.00
2012,04,20,13,49,13.10
2012,04,20,13,50,13.10
2012,04,20,13,51,13.10
2012,04,20,13,52,13.00
2012,04,20,13,53,13.00
2012,04,20,13,54,13.00
2012,04,20,13,55,13.10
2012,04,20,13,56,13.00
2012,04,20,13,57,13.00
2012,04,20,13,58,12.90
2012,04,20,13,59,12.80
2012,04,20,14,00,12.80
2012,04,20,14,01,12.80
2012,04,20,14,02,12.70
2012,04,20,14,03,12.70
2012,04,20,14,04,12.60
2012,04,20,14,05,12.60
2012,04,20,14,06,12.60
2012,04,20,14,07,12.60
2012,04,20,14,08,12.60
2012,04,20,14,09,12.60
2012,04,20,14,10,12.60
2012,04,20,14,11,12.60
2012,04,20,14,12,12.50
2012,04,20,14,13,12.50
2012,04,20,14,14,12.50
2012,04,20,14,15,12.50
2012,04,20,14,16,12.50
2012,04,20,14,17,12.50
2012,04,20,14,18,12.50
2012,04,20,14,19,12.60
2012,04,20,14,20,12.60
2012,04,20,14,21,12.60
2012,04,20,14,22,12.70
2012,04,20,14,23,12.70
2012,04,20,14,24,12.70
2012,04,20,14,25,12.70
2012,04,20,14,26,12.70
2012,04,20,14,27,12.70
2012,04,20,14,28,12.70
2012,04,20,14,29,12.80
2012,04,20,14,30,12.80
2012,04,20,14,31,12.80
2012,04,20,14,32,12.90
2012,04,20,14,33,12.90
2012,04,20,14,34,13.00
2012,04,20,14,35,13.00
2012,04,20,14,36,13.10
2012,04,20,14,37,13.10
2012,04,20,14,38,13.20
2012,04,20,14,39,13.20
2012,04,20,14,40,13.30
2012,04,20,14,41,13.40
2012,04,20,14,42,13.40
2012,04,20,14,43,13.50
2012,04,20,14,44,13.50
2012,04,20,14,45,13.50
2012,04,20,14,46,13.50
2012,04,20,14,47,13.50
2012,04,20,14,48,13.50
2012,04,20,14,49,13.60
2012,04,20,14,50,13.60
2012,04,20,14,51,13.60
2012,04,20,14,52,13.60
2012,04,20,14,53,13.60
2012,04,20,14,54,13.70
2012,04,20,14,55,13.70
2012,04,20,14,56,13.70
2012,04,20,14,57,13.70
2012,04,20,14,58,13.80
2012,04,20,14,59,13.80
2012,04,20,15,00,13.80
2012,04,20,15,01,13.90
2012,04,20,15,02,13.90
2012,04,20,15,03,14.00
2012,04,20,15,04,14.00
2012,04,20,15,05,14.10
2012,04,20,15,06,14.20
2012,04,20,15,07,14.20
2012,04,20,15,08,14.20
2012,04,20,15,09,14.30
2012,04,20,15,10,14.30
2012,04,20,15,11,14.40
2012,04,20,15,12,14.50
2012,04,20,15,13,14.50
2012,04,20,15,14,14.60
2012,04,20,15,15,14.70
2012,04,20,15,16,14.80
2012,04,20,15,17,14.80
2012,04,20,15,18,14.90
2012,04,20,15,19,15.00
2012,04,20,15,20,15.00
2012,04,20,15,21,15.00
2012,04,20,15,22,15.00
2012,04,20,15,23,14.90
2012,04,20,15,24,14.80
2012,04,20,15,25,14.70
2012,04,20,15,26,14.50
2012,04,20,15,27,14.50
2012,04,20,15,28,14.40
2012,04,20,15,29,14.40
2012,04,20,15,30,14.30
2012,04,20,15,31,14.20
2012,04,20,15,32,14.20
2012,04,20,15,33,14.10
2012,04,20,15,34,14.00
2012,04,20,15,35,14.00
2012,04,20,15,36,13.90
2012,04,20,15,37,13.80
2012,04,20,15,38,13.70
2012,04,20,15,39,13.70
2012,04,20,15,40,13.70
2012,04,20,15,41,13.70
2012,04,20,15,42,13.70
2012,04,20,15,43,13.70
2012,04,20,15,44,13.80
2012,04,20,15,45,13.80
2012,04,20,15,46,13.80
2012,04,20,15,47,13.80
2012,04,20,15,48,13.90
2012,04,20,15,49,13.90
2012,04,20,15,50,13.80
2012,04,20,15,51,13.80
2012,04,20,15,52,13.80
2012,04,20,15,53,13.80
2012,04,20,15,54,13.70
2012,04,20,15,55,13.70
2012,04,20,15,56,13.60
2012,04,20,15,57,13.60
2012,04,20,15,58,13.50
2012,04,20,15,59,13.40
2012,04,20,16,00,13.40
2012,04,20,16,01,13.40
2012,04,20,16,02,13.30
2012,04,20,16,03,13.30
2012,04,20,16,04,13.30
2012,04,20,16,05,13.30
2012,04,20,16,06,13.30
2012,04,20,16,07,13.30
2012,04,20,16,08,13.30
2012,04,20,16,09,13.30
2012,04,20,16,10,13.40
2012,04,20,16,11,13.50
2012,04,20,16,12,13.50
2012,04,20,16,13,13.60
2012,04,20,16,14,13.60
2012,04,20,16,15,13.50
2012,04,20,16,16,13.50
2012,04,20,16,17,13.40
2012,04,20,16,18,13.40
2012,04,20,16,19,13.30
2012,04,20,16,20,13.30
2012,04,20,16,21,13.30
2012,04,20,16,22,13.30
2012,04,20,16,23,13.20
2012,04,20,16,24,13.20
2012,04,20,16,25,13.10
2012,04,20,16,26,13.10
2012,04,20,16,27,13.10
2012,04,20,16,28,13.10
2012,04,20,16,29,13.10
2012,04,20,16,30,13.10
2012,04,20,16,31,13.10
2012,04,20,16,32,13.10
2012,04,20,16,33,13.10
2012,04,20,16,34,13.00
2012,04,20,16,35,13.00
2012,04,20,16,36,13.00
2012,04,20,16,37,13.00
2012,04,20,16,38,12.90
2012,04,20,16,39,12.90
2012,04,20,16,40,12.90
2012,04,20,16,41,12.90
2012,04,20,16,42,12.80
2012,04,20,16,43,12.80
2012,04,20,16,44,12.90
2012,04,20,16,45,12.90
2012,04,20,16,46,12.90
2012,04,20,16,47,12.90
2012,04,20,16,48,12.90
2012,04,20,16,49,12.90
2012,04,20,16,50,12.90
2012,04,20,16,51,12.80
2012,04,20,16,52,12.70
2012,04,20,16,53,12.70
2012,04,20,16,54,12.70
2012,04,20,16,55,12.60
2012,04,20,16,56,12.60
2012,04,20,16,57,12.60
2012,04,20,16,58,12.60
2012,04,20,16,59,12.60
2012,04,20,17,00,12.60
2012,04,20,17,01,12.60
2012,04,20,17,02,12.70
2012,04,20,17,03,12.70
2012,04,20,17,04,12.60
2012,04,20,17,05,12.60
2012,04,20,17,06,12.50
2012,04,20,17,07,12.50
2012,04,20,17,08,12.50
2012,04,20,17,09,12.50
2012,04,20,17,10,12.50
2012,04,20,17,11,12.50
2012,04,20,17,12,12.50
2012,04,20,17,13,12.50
2012,04,20,17,14,12.40
2012,04,20,17,15,12.40
2012,04,20,17,16,12.30
2012,04,20,17,17,12.30
2012,04,20,17,18,12.30
2012,04,20,17,19,12.30
2012,04,20,17,20,12.40
2012,04,20,17,21,12.40
2012,04,20,17,22,12.30
2012,04,20,17,23,12.40
2012,04,20,17,24,12.40
2012,04,20,17,25,12.40
2012,04,20,17,26,12.30
2012,04,20,17,27,12.30
2012,04,20,17,28,12.30
2012,04,20,17,29,12.30
2012,04,20,17,30,12.30
2012,04,20,17,31,12.20
2012,04,20,17,32,12.20
2012,04,20,17,33,12.20
2012,04,20,17,34,12.20
2012,04,20,17,35,12.20
2012,04,20,17,36,12.10
2012,04,20,17,37,12.10
2012,04,20,17,38,12.10
2012,04,20,17,39,12.10
2012,04,20,17,40,12.00
2012,04,20,17,41,12.00
2012,04,20,17,42,12.00
2012,04,20,17,43,12.00
2012,04,20,17,44,12.00